World > North America > United States > Texas > Norwood  

Norwood, TX Hourly Weather Updates

Feedback E-mail the Weather

Quick Clicks

Norwood, TX Weather Maps

°F °C°F °C
Norwood Weather Map
UTC Time: 7/16/2024, 14:40
Your Time:

Norwood, TX Regional Weather

Expires:202407161500;;133248
ASUS44 KFWD 161415
RWRTX 
NORTH TEXAS HOURLY WEATHER ROUNDUP
NATIONAL WEATHER SERVICE FORT WORTH TX
900 AM CDT TUE JUL 16 2024

NOTE: "FAIR" INDICATES FEW OR NO CLOUDS BELOW 12,000 FEET WITH NO
SIGNIFICANT WEATHER AND/OR OBSTRUCTIONS TO VISIBILITY.


TXZ095>097-106>112-122>126-135>138-148>153-164>167-161500-
EAST TEXAS
  
CITY           SKY/WX    TMP DP  RH WIND       PRES   REMARKS
PARIS          FAIR     N/A N/A N/A SW14      29.96F                  
SULPHUR SPRNGS FAIR      83  73  72 SW14      30.00S                  
MOUNT PLEASANT FAIR      82  77  84 SW12        N/A  HX  90           
GILMER         FAIR      81  71  71 S10       30.00S                  
MINEOLA        FAIR      82  73  74 SW8       30.00R                  
TYLER          FAIR      82  73  74 S14       30.01R                  
LONGVIEW       FAIR      82  74  76 SW12      30.00R                  
MARSHALL       FAIR      81  78  91 SW8       29.99S                  
ATHENS         FAIR      79  72  78 S10G16    29.99S                  
PALESTINE      FAIR      81  75  83 S8        30.00S                  
JACKSONVILLE   FAIR      78  73  84 SW8       30.05R                  
HENDERSON      FAIR      83  77  81 SW6       30.03S HX  93           
CENTER         FAIR      81  73  78 S10G16    30.03S                  
NACOGDOCHES    CLOUDY    80  79  96 SW10      30.04R                  
LUFKIN         FAIR      77  75  93 SW7       30.03R                  
$$

SUPPLEMENTAL OBSERVATIONS (NWS FORT WORTH AREA)
  
CITY           SKY/WX    TMP DP  RH WIND       PRES   REMARKS
CADDO GRASSLND   N/A     86  72  62 SW8G17      N/A  HX  92           
LBJ GRASSLAND    N/A     84  66  54 S6          N/A                   
POSSUM KINGDOM   N/A     84  64  51 S8          N/A                   
GRANBURY         N/A     84  66  54 SW10        N/A                   
MCGREGOR         N/A     82  70  65 SW8         N/A                   
TEMPLE           N/A     81  72  74 SW12        N/A                   
PALESTINE        N/A     81  73  78 S6          N/A                   
$$

SUPPLEMENTAL OBSERVATIONS (NWS NORMAN AREA)
  
CITY           SKY/WX    TMP DP  RH WIND       PRES   REMARKS
GOODLETT         N/A     87  61  42 S9        29.94                   
ODELL            N/A     89  65  45 SW13      29.94R HX  90           
CROWELL          N/A     87  64  47 SW10      29.96R                  
KNOX CITY        N/A     86  67  52 S17       29.96                   
SEYMOUR          N/A     86  67  52 S10       29.95R                  
MILLERS CREEK    N/A     86  66  51 S14         N/A                   
$$

SUPPLEMENTAL OBSERVATIONS (NWS SAN ANGELO AREA)
  
CITY           SKY/WX    TMP DP  RH WIND       PRES   REMARKS
WEINERT          N/A     86  65  49 SW16      29.97S                  
HASKELL          N/A     84  65  53 SW17      29.97                   
THROCKMORTON     N/A     84  67  56 SW12      29.98                   
STAMFORD         N/A     87  67  52 SW16      30.01                   
CLYDE            N/A     82  65  55 SW16      30.05S                  
HAMBY            N/A     84  63  48 SW13        N/A                   
IVIE RESERVOIR   N/A     82  64  54 S13         N/A                   
COLORADO BEND    N/A     81  68  65 S10         N/A                   
$$

SUPPLEMENTAL OBSERVATIONS (NWS SHREVEPORT AREA)
  
CITY           SKY/WX    TMP DP  RH WIND       PRES   REMARKS
TEXARKANA        N/A     82  77  83 SW6         N/A  HX  91           
LUFKIN           N/A     82  75  78 MISG        N/A                   
N SABINE NF      N/A     82  75  78 MISG        N/A                   
$$

SUPPLEMENTAL OBSERVATIONS ARE A COLLECTION OF AUTOMATED INSTRUMENTS
THAT ARE MAINTAINED BY A VARIETY OF FEDERAL AND STATE AGENCIES. 
CERTAIN ELEMENTS...SUCH AS HUMIDITY VALUES AND SUSTAINED WIND 
SPEEDS...MAY BE APPROXIMATED.

  

SKY/WX - Weather  TMP - Temperature  DP - Dew Point  RH - Humidity
WIND - Wind Direction/Speed PRES - Barometric Pressure VSB - Visibility
WCI - Wind Chill Index E13G22 Wind - East Wind 13 mph/Gusts of 22 mph

Trending Headlines

Trending Entertainment Headlines

Norwood Radar Loop

Use the map search tool if you want to place a location marker on the radar map...

Norwood Quick Facts

National Two Day Weather Forecast


E-mail the Norwood Weather Forecast

Voice your opinion or tell us about page issues...